Weather History for Crestview, FL

Change the Weather History Date:

Wednesday, October 2, 2013

  Actual Average Record
Temperature  
Mean Temperature 75 °F -  
Max Temperature 82 °F 85 °F 93 °F (2006)
Min Temperature 69 °F 58 °F 42 °F (2001)
Cooling Degree Days 10    
Growing Degree Days 25 (Base 50)    
Moisture  
Dew Point 69 °F    
Average Humidity 88    
Maximum Humidity 94    
Minimum Humidity 69    
Precipitation  
Precipitation 0.02 in - - ()
Sea Level Pressure  
Sea Level Pressure 30.07 in    
Wind  
Wind Speed 1 mph (East)    
Max Wind Speed 7 mph    
Max Gust Speed -    
Visibility 7 miles    
Events Rain    
Averages and records for this station are not official NWS values.
T = Trace of Precipitation, MM = Missing Value Source: NWS Daily Summary

Daily Weather History Graph

Daily Weather History Graph

Search for Another Location

Airport:

Trip Planner

Search our weather history database for the weather conditions in past years. The results will help you decide how hot, cold, wet, or windy it might be!

Date:

Astronomy

Oct. 02, 2013 Rise Set
Actual Time 6:40 AM CDT 6:29 PM CDT
Civil Twilight 6:16 AM CDT 6:53 PM CDT
Nautical Twilight 5:48 AM CDT 7:21 PM CDT
Astronomical Twilight 5:20 AM CDT 7:49 PM CDT
Moon 4:20 AM CDT (10/2) 4:59 PM CDT (10/2)
Length of Visible Light 12h 37m
Length of Day
11h 49m
Waning Crescent, 6% of the Moon is Illuminated
Oct 2
Waning Crescent
Oct 4
New
Oct 11
First Quarter
Oct 18
Full
Oct 26
Last Quarter

Hourly Weather History & Observations

Time (CDT) Temp. Heat Index Dew Point Humidity Pressure Visibility Wind Dir Wind Speed Gust Speed Precip Events Conditions
12:53 AM 70.0 °F - 66.9 °F 90% 30.07 in 10.0 mi Calm Calm - N/A   Mostly Cloudy
1:53 AM 71.1 °F - 66.9 °F 87% 30.06 in 10.0 mi Calm Calm - N/A   Mostly Cloudy
2:53 AM 69.1 °F - 66.9 °F 93% 30.06 in 8.0 mi Calm Calm - N/A   Scattered Clouds
3:53 AM 71.1 °F - 66.9 °F 87% 30.05 in 10.0 mi Calm Calm - N/A   Overcast
4:53 AM 70.0 °F - 66.0 °F 87% 30.04 in 10.0 mi Calm Calm - N/A   Partly Cloudy
5:53 AM 70.0 °F - 66.0 °F 87% 30.06 in 10.0 mi ENE 3.5 mph - N/A   Overcast
6:53 AM 70.0 °F - 66.0 °F 87% 30.07 in 10.0 mi NE 3.5 mph - N/A   Clear
7:53 AM 71.1 °F - 66.0 °F 84% 30.08 in 10.0 mi NE 3.5 mph - N/A   Partly Cloudy
8:53 AM 73.9 °F - 68.0 °F 82% 30.10 in 10.0 mi ENE 6.9 mph - N/A   Clear
9:53 AM 75.9 °F - 69.1 °F 79% 30.11 in 10.0 mi Calm Calm - N/A   Mostly Cloudy
10:53 AM 75.9 °F - 71.1 °F 85% 30.10 in 10.0 mi Calm Calm - 0.00 in Rain Light Rain
11:53 AM 78.1 °F - 70.0 °F 76% 30.09 in 10.0 mi ENE 6.9 mph - 0.00 in   Partly Cloudy
12:53 PM 81.0 °F 84.4 °F 70.0 °F 69% 30.08 in 10.0 mi NE 5.8 mph - N/A   Overcast
1:53 PM 79.0 °F - 72.0 °F 79% 30.06 in 10.0 mi ENE 3.5 mph - 0.00 in Rain Light Rain
2:53 PM 78.1 °F - 73.0 °F 84% 30.04 in 10.0 mi Calm Calm - 0.01 in Rain Light Rain
3:53 PM 77.0 °F - 73.9 °F 90% 30.04 in 4.0 mi Calm Calm - 0.01 in Rain Light Rain
4:16 PM 77.0 °F - 73.4 °F 89% 30.06 in 4.0 mi SE 3.5 mph - 0.00 in Rain Light Rain
4:46 PM 77.0 °F - 73.4 °F 89% 30.06 in 5.0 mi SE 4.6 mph - 0.00 in Rain Light Rain
4:53 PM 75.9 °F - 73.0 °F 91% 30.05 in 6.0 mi SE 3.5 mph - 0.00 in Rain Light Rain
5:53 PM 75.9 °F - 72.0 °F 87% 30.04 in 9.0 mi Calm Calm - 0.00 in   Scattered Clouds
6:53 PM 73.9 °F - 71.1 °F 91% 30.04 in 9.0 mi Calm Calm - N/A   Mostly Cloudy
7:53 PM 73.0 °F - 71.1 °F 93% 30.06 in 4.0 mi Calm Calm - N/A   Mostly Cloudy
8:53 PM 71.1 °F - 69.1 °F 93% 30.07 in 5.0 mi Calm Calm - 0.00 in   Clear
9:49 PM 71.6 °F - 69.8 °F 94% 30.10 in 1.5 mi Calm Calm - N/A   Partly Cloudy
9:53 PM 70.0 °F - 68.0 °F 93% 30.09 in 1.0 mi Calm Calm - N/A   Partly Cloudy
10:01 PM 69.8 °F - 68.0 °F 94% 30.10 in 3.0 mi Calm Calm - N/A   Clear
10:15 PM 69.8 °F - 68.0 °F 94% 30.10 in 2.0 mi Calm Calm - N/A   Clear
10:22 PM 69.8 °F - 68.0 °F 94% 30.10 in 1.2 mi Calm Calm - N/A   Scattered Clouds
10:31 PM 69.8 °F - 68.0 °F 94% 30.10 in 3.0 mi Calm Calm - N/A   Mostly Cloudy
10:53 PM 70.0 °F - 68.0 °F 93% 30.09 in 4.0 mi Calm Calm - N/A   Scattered Clouds
11:53 PM 70.0 °F - 68.0 °F 93% 30.07 in 6.0 mi Calm Calm - 0.00 in   Clear